Hourly Data Report for July 07, 2021

DRYDEN REGIONAL
ONTARIO
Current Station Operator: NAVCAN

49°49'39.000" N
92°44'39.000" W
412.70 m
6032125
71527
YHD

Download Data

Hourly Data (July 2021)
Hourly Data Report for July 7, 2021
TIME
LST
Temp Definition
°C
Dew Point Definition
°C
Rel Hum Definition
%
Precip. Amount Definition
mm

Wind Dir Definition
10's deg

Wind Spd Definition
km/h
Visibility Definition
km
Stn Press Definition
kPa
Hmdx Definition


Wind Chill Definition


Weather Definition


00:00 10.5 3.1 60 0.0 6 8 16.1 97.24     LegendNANA
01:00 10.1 3.4 63 0.0 8 8 16.1 97.24     LegendNANA
02:00 9.9 4.5 69 0.0 7 9 16.1 97.22     LegendNANA
03:00 9.4 5.2 75 0.0 4 9 16.1 97.23     LegendNANA
04:00 9.0 5.4 78 0.0 4 11 16.1 97.24     LegendNANA
05:00 9.3 6.2 81 0.0 5 9 16.1 97.26     LegendNANA
06:00 11.5 6.5 71 0.0 8 8 16.1 97.28     LegendNANA
07:00 12.8 6.0 63 0.0 10 9 16.1 97.29     LegendNANA
08:00 15.2 5.2 51 0.0 12 15 16.1 97.31     LegendNANA
09:00 15.6 3.5 44 0.0 13 17 16.1 97.31     LegendNANA
10:00 16.6 4.3 44 0.0 12 13 16.1 97.28     LegendNANA
11:00 16.9 3.9 42 0.0 12 11 16.1 97.23     LegendNANA
12:00 18.5 3.8 37 0.0 8 11 16.1 97.16     LegendNANA
13:00 19.5 4.1 36 0.0 5 13 16.1 97.08     LegendNANA
14:00 19.5 3.4 34 0.0 6 13 16.1 97.02     LegendNANA
15:00 20.0 1.6 29 0.0 5 13 16.1 96.98     LegendNANA
16:00 20.3 2.2 30 0.0 6 5 16.1 96.93     LegendNANA
17:00 20.6 3.0 31 0.0 4 9 16.1 96.90     LegendNANA
18:00 20.0 3.2 33 0.0 14 5 16.1 96.87     LegendNANA
19:00 19.8 2.7 32 0.0   0 16.1 96.86     LegendNANA
20:00 18.5 2.0 33 0.0 9 5 16.1 96.84     LegendNANA
21:00 16.1 4.3 45 0.0 10 8 16.1 96.87     LegendNANA
22:00 14.8 2.7 44 0.0 11 5 16.1 96.86     LegendNANA
23:00 14.1 3.6 49 0.0 LegendMM 4 16.1 96.83     LegendNANA

Notes on Data Quality.

Legend

  • E = Estimated
  • M = Missing
  • NA = Not Available*
  • [empty] = Indicates an unobserved value
Date modified: